User: anonymous
Location: Bismarck
(46.7731°N, 100.8200°W)
Time: 18:14:09
(UTC-05:00)
Language:

Landsat 7 - Orbit

View from above orbital plane
View from above orbital plane
View from above satellite
View from above satellite

Ground track
Ground track

The orbit data is extracted from the following two-line orbital elements,

1 25682U 99020A   14240.80904569 -.00000683  00000-0  00000+0 0  5527
2 25682 098.2126 309.4429 0001034 105.7216 254.4593 14.57113989817561
Epoch (UTC): 28 August 2014 19:25:01
Eccentricity: 0.0001034
inclination: 98.2126°
perigee height: 702 km
apogee height: 703 km
right ascension of ascending node: 309.4429°
argument of perigee: 105.7216°
revolutions per day: 14.57113989
mean anomaly at epoch: 254.4593°
orbit number at epoch: 81756

The dashed part of the orbit path shows where the satellite is in the earth's shadow,  

DLR